Regional Weather Roundup
Issued by NWS

Home | Current Version | Previous Version | Graphics & Text | Print | Product List | Glossary On
Versions: 1 2 3 4 5 6 7 8 9 10 11 12 13 14 15 16 17 18 19 20 21 22 23 24 25 26 27 28 29 30 31 32 33 34 35 36 37 38 39 40 41 42 43 44 45 46 47 48 49 50
000
ASUS45 KSLC 261910
RWRUT

UTAH REGIONAL WEATHER ROUNDUP
NATIONAL WEATHER SERVICE SALT LAKE CITY UT
1200 PM MST WED NOV 26 2014

UTZ001>011-023>025-262000-

NORTHERN UTAH

CITY           SKY/WX    TMP DP  RH WIND       PRES   REMARKS
HILL AFB       SUNNY     54  32  43 S9        30.39F
LOGAN          SUNNY     53  32  44 SW3       30.36F
OGDEN          SUNNY     54  31  41 S8        30.38F
PROVO AIRPORT  SUNNY     45  28  53 VRB5      30.43F
SALT LAKE CITY MOSUNNY   56  30  37 S7        30.38F
VERNAL         SUNNY     47  29  49 CALM      30.33F
WENDOVER       SUNNY     52  34  50 E5        30.39F
HEBER CITY     SUNNY     45  32  61 CALM      30.40F
WEST JORDAN    SUNNY     54  36  50 SE13      30.40F

$$

UTZ012>022-026-027-262000-

SOUTHERN/CENTRAL UTAH

CITY           SKY/WX    TMP DP  RH WIND       PRES   REMARKS
BLANDING       SUNNY     52  19  27 S8G16     30.45S
BRYCE CANYON   MOSUNNY   40  25  55 NE9       30.48F WCI  34
CEDAR CITY     SUNNY     55  27  34 VRB3      30.44F
DELTA          SUNNY     48  25  41 SW6       30.43F
MILFORD        SUNNY     54  26  34 S10       30.43F
MOAB/CYNLANDS  SUNNY     49  17  28 CALM      30.38F
PRICE          SUNNY     47  25  42 S6        30.39F
ST GEORGE      CLEAR     48  12  23 CALM      30.45F
KANAB          SUNNY     52  14  22 CALM      30.46F

$$

REGIONAL REPORTS     COLORADO/ARIZONA

CITY           SKY/WX    TMP DP  RH WIND       PRES   REMARKS
CRAIG, CO      MOSUNNY   46  29  51 W12       30.31F
GRAND JUNCTION SUNNY     44  19  36 CALM      30.39F
RIFLE          SUNNY     37  25  61 CALM      30.40F
MONTROSE       SUNNY     51  26  37 VRB5      30.39F
CORTEZ         SUNNY     55  25  31 NW22G29   30.37F
PAGE, AZ       SUNNY     51  12  21 N3        30.41F
GRAND CANYON   SUNNY     58  18  21 S5        30.47F
KINGMAN        SUNNY     61  12  14 N7        30.40F
FLAGSTAFF      SUNNY     59  16  18 NE9       30.46F

$$

REGIONAL REPORTS    NEVADA/IDAHO/WYOMING

CITY           SKY/WX    TMP DP  RH WIND       PRES   REMARKS
LAS VEGAS, NV  SUNNY     62  13  14 CALM      30.36F
ELY            SUNNY     56  32  40 VRB3      30.47F
ELKO           SUNNY     49  32  52 SW5       30.42F
POCATELLO, ID  MOSUNNY   53  36  52 SW31G38   30.33S
BURLEY         SUNNY     53  33  46 W12G21    30.32F
EVANSTON, WY   MOSUNNY   42  29  59 SW26G32   30.35F
ROCK SPRINGS   SUNNY     41  29  62 W30G43    30.27F

$$


USA.gov is the U.S. government's official web portal to all federal, state and local government web resources and services.